Weather Roundup
Issued by NWS

Home | Current Version | Previous Version | Text Only | Print | Product List | Glossary On
Versions: 1 2 3 4 5 6 7 8 9 10 11 12 13 14 15 16 17 18 19 20 21 22 23 24 25 26 27 28 29 30 31 32 33 34 35 36 37 38 39 40 41 42 43 44 45 46 47 48 49 50
744
NZUS93 KARX 221310
HRRWXR

CURRENT HOURLY OBSERVATIONS ACROSS
MUCH OF THE UPPER MISSISSIPPI VALLEY
NATIONAL WEATHER SERVICE LA CROSSE WI
800 AM CDT FRI MAY 22 2015


...SOUTHEAST MINNESOTA...


CITY           SKY/WX    TMP DP  RH WIND       PRES   REMARKS
ROCHESTER      SUNNY     54  39  57 N7        30.20R
ROCHESTER/MAYO FAIR      51  37  58 CALM      30.19S
WINONA         SUNNY     50  41  71 CALM      30.20R
AUSTIN         SUNNY     54  39  58 CALM      30.19R
ALBERT LEA     SUNNY     55  43  62 CALM      30.19S
DODGE CENTER   SUNNY     55  37  50 N6        30.19R
PRESTON        SUNNY     54  38  56 N5        30.19R
OWATONNA       SUNNY     54  43  66 CALM      30.19S
FARIBAULT      SUNNY     54  39  58 NE3       30.19S
$$

...ELSEWHERE IN MINNESOTA...


CITY           SKY/WX    TMP DP  RH WIND       PRES   REMARKS
MINNEAPOLIS    SUNNY     56  39  53 VRB3      30.21R
INTNL FALLS    SUNNY     48  38  68 CALM      30.19R
DULUTH         SUNNY     52  28  39 E3        30.20R
RED WING       SUNNY     52  39  62 CALM      30.19R
REDWOOD FALLS  SUNNY     52  41  66 NW3       30.20R
MANKATO        SUNNY     54  39  58 CALM      30.20R
WORTHINGTON    SUNNY     55  37  50 CALM      30.21R
FAIRMONT       SUNNY     55  36  47 NW6       30.19S
$$

...SOUTHWEST WISCONSIN...


CITY           SKY/WX    TMP DP  RH WIND       PRES   REMARKS
LA CROSSE      SUNNY     52  43  71 SE3       30.19R
PRAIRIE DU CHI SUNNY     49  43  81 CALM      30.19R
BOSCOBEL       SUNNY     50  44  80 NE5       30.21R
LONE ROCK      SUNNY     50  42  74 CALM      30.21R
PLATTEVILLE    SUNNY     53  40  62 E7        30.19R
FORT MC COY    SUNNY     48  40  73 CALM      30.20R
CAMP DOUGLAS   SUNNY     48  43  81 SE5       30.20R
VIROQUA        FAIR      52  40  64 SE9       30.20R
WIS DELLS      SUNNY     50  33  53 E5        30.21R
$$

...ELSEWHERE IN WISCONSIN...


CITY           SKY/WX    TMP DP  RH WIND       PRES   REMARKS
MILWAUKEE      SUNNY     50  35  56 NE8       30.20R
MADISON        SUNNY     51  35  54 CALM      30.20R
GREEN BAY      SUNNY     51  31  46 N5        30.22R
EAU CLAIRE     SUNNY     52  39  61 NE6       30.19R
BLACK RVR FLS  FAIR      47  38  69 CALM      30.20R
MEDFORD        SUNNY     48  37  65 S7        30.20R
WAUSAU         SUNNY     49  32  52 S8        30.20R
WIS RAPIDS     SUNNY     51  31  46 SE3       30.22R
MARSHFIELD     SUNNY     50  36  58 E6        30.21R
RICE LAKE      SUNNY     49  40  71 N3        30.22R
$$

...NORTHEAST IOWA...


CITY           SKY/WX    TMP DP  RH WIND       PRES   REMARKS
DECORAH        SUNNY     52  37  58 NW3       30.18R
MASON CITY     SUNNY     56  42  59 NW3       30.20S
CHARLES CITY   SUNNY     55  39  54 N3        30.19S
OELWEIN        SUNNY     57  41  54 N6        30.19S
$$

...ELSEWHERE IN IOWA...


CITY           SKY/WX    TMP DP  RH WIND       PRES   REMARKS
DES MOINES     PTSUNNY   57  44  62 NW3       30.20R
IOWA CITY      SUNNY     57  41  55 N5        30.19R
FORT DODGE     SUNNY     54  43  66 CALM      30.20S
$$

...NORTHERN ILLINOIS...


CITY           SKY/WX    TMP DP  RH WIND       PRES   REMARKS
CHICAGO-OHARE  SUNNY     54  38  54 NE9       30.17R
CHICAGO-MIDWAY SUNNY     57  43  59 NE8       30.16R
MOLINE         SUNNY     57  44  62 CALM      30.17R
ROCKFORD       SUNNY     55  35  47 E7        30.21R
PEORIA         SUNNY     60  46  59 NW3       30.17R
$$

NOTE: "FAIR" INDICATES FEW OR NO CLOUDS BELOW 12,000 FEET WITH NO
SIGNIFICANT WEATHER AND/OR OBSTRUCTIONS TO VISIBILITY. WIND
SPEEDS ARE IN MILES-PER-HOUR.



USA.gov is the U.S. government's official web portal to all federal, state and local government web resources and services.